x

Central Caribbean - 210 Nm Sse Of Kingston, Jamaica (42058) Weather Station

1:20pm - Sat 23rd Sep 2017 All times are EST. -5 hours from GMT.

  • Wind
    7mph, 9mph gusts
  • Sea Temp 87°f
  • Sea Pressure 1009.3mb
  • Central Caribbean - 210 Nm Sse Of Kingston, Jamaica
  • Central Caribbean - 210 Nm Sse Of Kingston, Jamaica

More Historic Weather Station data

Upgrade to MSW Pro to gain access to the past 30 days of data for over 8000 Wavebouys and Weather Stations around the globe.

Join

Comparision Forecast

View Surf forecast
   
Sat 09/23 1:20pm  -   -   -  7 9 mph 1009.3mb 87f
1:10pm  -   -   -  7 9 mph 1009.3mb 87f
1:00pm  -   -   -  7 9 mph 1009.3mb 87f
12:50pm 2.5ft 7s 6s 7 11 mph 1009.4mb 87f
12:40pm  -   -   -  9 11 mph 1009.5mb 87f
12:30pm  -   -   -  9 11 mph 1009.6mb 87f
12:20pm  -   -   -  9 11 mph 1009.7mb 87f
12:10pm  -   -   -  9 11 mph 1009.7mb 87f
12:00pm  -   -   -  9 11 mph 1009.9mb 87f
11:50am 2.5ft 8s 6s 9 13 mph 1009.9mb 87f
11:40am  -   -   -  11 13 mph 1010mb 87f
11:30am  -   -   -  11 13 mph 1010.1mb 87f
11:20am  -   -   -  9 13 mph 1010.1mb 87f
11:10am  -   -   -  9 11 mph 1010.2mb 87f
11:00am  -   -   -  9 11 mph 1010.4mb 87f
10:50am 2.5ft 8s 6s 9 11 mph 1010.5mb 87f
10:40am  -   -   -  9 11 mph 1010.7mb 87f
10:30am  -   -   -  9 11 mph 1010.7mb 87f
10:20am  -   -   -  9 11 mph 1010.8mb 87f
10:10am  -   -   -  9 11 mph 1010.7mb 87f
10:00am  -   -   -  7 9 mph 1010.7mb 87f
9:50am 2.5ft 7s 6s 9 11 mph 1010.7mb 87f
9:40am  -   -   -  7 9 mph 1010.7mb 87f
9:30am  -   -   -  7 7 mph 1010.5mb 87f
9:20am  -   -   -  7 9 mph 1010.4mb 86f
9:10am  -   -   -  9 9 mph 1010.4mb 86f
9:00am  -   -   -  7 9 mph 1010.1mb 86f
8:50am 2.5ft 6s 6s 2 4 mph 1010.1mb 86f
8:40am 2.5ft  -  6s 4 4 mph 1009.9mb 86f
8:30am  -   -   -  4 4 mph 1010mb 86f
8:20am  -   -   -  4 7 mph 1010mb 86f
8:10am  -   -   -  2 4 mph 1009.8mb -
8:00am  -   -   -  2 4 mph 1009.7mb -
7:50am 2ft 8s 6s 2 4 mph 1009.6mb 86f
7:40am 2ft  -  6s  -  2 mph 1009.6mb 86f
7:30am  -   -   -  2 4 mph 1009.5mb 86f
7:20am  -   -   -   -  2 mph 1009.4mb 86f
7:10am  -   -   -   -  2 mph 1009.2mb 86f
7:00am  -   -   -   -  0 mph 1009.2mb 86f
6:50am 2.5ft 7s 6s  -  0 mph 1009mb 86f
6:40am  -   -   -   -  0 mph 1008.8mb 86f
6:30am  -   -   -   -  2 mph 1008.7mb 86f
6:20am  -   -   -   -  0 mph 1008.5mb 86f
6:10am  -   -   -   -  2 mph 1008.5mb 86f
6:00am  -   -   -   -  0 mph 1008.5mb 86f
5:50am 2ft 6s 6s  -  2 mph 1008.5mb 86f
5:40am 2ft  -  6s  -  2 mph 1008.5mb 86f
5:30am  -   -   -  2 4 mph 1008.5mb 86f
5:20am  -   -   -  2 4 mph 1008.4mb 86f
5:10am  -   -   -   -  2 mph 1008.5mb 86f
5:00am  -   -   -   -  2 mph 1008.4mb 86f
4:50am 2ft 7s 6s  -  2 mph 1008.4mb 86f
4:40am  -   -   -  2 4 mph 1008.3mb 86f
4:30am  -   -   -  2 4 mph 1008.3mb 86f
4:20am  -   -   -  2 4 mph 1008.4mb 86f
4:10am  -   -   -  2 4 mph 1008.3mb 86f
4:00am  -   -   -  2 4 mph 1008.4mb 86f
3:50am 2.5ft 6s 6s 2 2 mph 1008.3mb 86f
3:40am 2.5ft  -  6s 2 4 mph 1008.3mb 86f
3:30am  -   -   -  2 4 mph 1008.2mb 86f
3:20am  -   -   -  2 7 mph 1008.2mb 86f
3:10am  -   -   -  2 4 mph 1008mb 86f
3:00am  -   -   -  4 7 mph 1007.8mb 86f
2:50am 2.5ft 6s 6s 4 7 mph 1007.7mb 86f
2:40am 2.5ft  -  6s 2 4 mph 1007.6mb 86f
2:30am  -   -   -  4 4 mph 1007.6mb 86f
2:20am  -   -   -  4 4 mph 1007.7mb 86f
2:10am  -   -   -  2 4 mph 1007.8mb -
2:00am  -   -   -  2 4 mph 1007.8mb 86f
1:50am 2.5ft 6s 6s 2 4 mph 1007.8mb 86f
1:40am 2.5ft  -  6s 2 4 mph 1007.8mb 86f
1:30am  -   -   -  2 4 mph 1007.9mb 86f
1:20am  -   -   -  4 4 mph 1007.9mb 86f
1:10am  -   -   -  2 4 mph 1008mb 86f
1:00am  -   -   -  2 4 mph 1008.2mb 86f
12:50am 2.5ft 6s 6s 4 7 mph 1008.2mb 86f
12:40am 2.5ft  -  6s 4 7 mph 1008.4mb 86f
12:30am  -   -   -  4 7 mph 1008.5mb 86f
12:20am  -   -   -  4 7 mph 1008.7mb 86f
12:10am  -   -   -  4 7 mph 1008.9mb 86f
12:00am  -   -   -  4 7 mph 1009mb 86f
Fri 09/22 11:50pm 2.5ft 6s 6s 2 4 mph 1009.3mb 86f
11:40pm 2.5ft  -  6s 4 7 mph 1009.3mb 86f
11:30pm  -   -   -  4 4 mph 1009.4mb 86f
11:20pm  -   -   -  2 4 mph 1009.5mb 86f
11:10pm  -   -   -  4 4 mph 1009.6mb 86f
11:00pm  -   -   -  4 7 mph 1009.6mb 87f
10:50pm 2.5ft 6s 6s 4 7 mph 1009.6mb 87f
10:40pm  -   -   -  4 7 mph 1009.6mb 87f
10:30pm  -   -   -  4 4 mph 1009.6mb 87f
10:20pm  -   -   -  4 4 mph 1009.7mb 87f
10:10pm  -   -   -  4 7 mph 1009.7mb 87f
10:00pm  -   -   -  2 4 mph 1009.7mb 87f
9:50pm 2.5ft 6s 6s 2 4 mph 1009.6mb 87f
9:40pm  -   -   -  2 4 mph 1009.6mb 87f
9:30pm  -   -   -  4 7 mph 1009.6mb 87f
9:20pm  -   -   -  4 4 mph 1009.4mb 87f
9:10pm  -   -   -  4 7 mph 1009.2mb 87f
9:00pm  -   -   -  2 4 mph 1009.1mb 87f
8:50pm 2.5ft 6s 6s 4 7 mph 1009mb 87f
8:40pm  -   -   -  4 7 mph 1008.9mb 87f
8:30pm  -   -   -  2 4 mph 1008.8mb 86f
8:20pm  -   -   -  2 4 mph 1008.8mb 86f
8:10pm  -   -   -   -  2 mph 1008.6mb -
8:00pm  -   -   -  2 2 mph 1008.5mb 86f
7:50pm 2.5ft 6s 6s 4 4 mph 1008.2mb 86f
7:40pm 2.5ft  -  6s 4 7 mph 1007.8mb 86f
7:30pm  -   -   -  4 7 mph 1007.9mb 86f
7:20pm  -   -   -  4 7 mph - -
7:10pm  -   -   -  4 7 mph 1007.7mb 86f
7:00pm  -   -   -  4 7 mph 1007.6mb 86f
6:50pm 2.5ft 7s 6s 4 7 mph 1007.5mb 86f
6:40pm  -   -   -  4 7 mph 1007.5mb 87f
6:20pm  -   -   -  4 7 mph 1007.1mb 87f
6:10pm  -   -   -  7 9 mph 1007.1mb 87f
6:00pm  -   -   -  9 9 mph 1006.9mb 87f
5:50pm 2.5ft 7s 6s 7 11 mph 1007.1mb 87f
5:40pm  -   -   -  7 9 mph 1006.7mb 87f
5:30pm  -   -   -  7 11 mph 1006.6mb 87f
5:20pm  -   -   -  9 13 mph 1006.7mb 87f
5:10pm  -   -   -  11 16 mph 1006.7mb 87f
5:00pm  -   -   -  13 16 mph 1006.6mb 87f
4:50pm 2.5ft 7s 6s 11 13 mph 1006.8mb 87f
4:40pm 2.5ft  -  6s 4 13 mph 1006.7mb 87f
4:30pm  -   -   -  4 7 mph 1006.8mb 87f
4:20pm  -   -   -  4 9 mph 1007mb 87f
4:10pm  -   -   -  7 11 mph 1006.9mb 87f
4:00pm  -   -   -  7 11 mph 1006.8mb 87f
3:50pm 3ft 7s 6s 7 9 mph 1007mb 87f
3:40pm  -   -   -  9 11 mph 1006.8mb 87f
3:30pm  -   -   -  9 11 mph 1006.8mb 87f
3:20pm  -   -   -  9 11 mph 1006.9mb 87f
3:10pm  -   -   -  9 11 mph 1007mb 87f
3:00pm  -   -   -  7 11 mph 1007.1mb 87f
2:50pm 3ft 7s 6s 7 9 mph 1007.3mb -
2:40pm 3ft  -  6s 7 9 mph 1007.1mb 87f
2:30pm  -   -   -  7 9 mph 1007.2mb 87f
2:20pm  -   -   -  4 9 mph 1007.4mb 87f
2:10pm  -   -   -  7 9 mph 1007.5mb 87f
2:00pm  -   -   -  4 7 mph 1007.6mb 87f
1:50pm 2.5ft 7s 6s 4 7 mph 1007.8mb 87f
1:40pm 2.5ft  -  6s 7 9 mph 1007.9mb 87f
1:30pm  -   -   -  4 9 mph 1008.1mb 87f
1:20pm  -   -   -  4 7 mph 1008.2mb 87f
1:10pm  -   -   -  4 7 mph 1008.3mb 87f
1:00pm  -   -   -  4 7 mph 1008.3mb 87f
12:50pm 2.5ft 7s 6s 4 7 mph 1008.5mb 87f
12:40pm  -   -   -  7 7 mph 1008.6mb 87f
12:30pm  -   -   -  4 7 mph 1008.6mb 87f
12:20pm  -   -   -  4 7 mph 1008.7mb 87f
12:10pm  -   -   -  4 7 mph 1008.8mb 87f
12:00pm  -   -   -  4 7 mph 1008.7mb 87f
11:50am 2.5ft 6s 6s 4 7 mph 1008.8mb 87f
11:40am  -   -   -  4 7 mph 1008.9mb 87f
11:30am  -   -   -  7 9 mph 1009mb -
11:20am  -   -   -  7 9 mph 1009mb 87f
11:10am  -   -   -  7 9 mph 1009mb 87f
11:00am  -   -   -  7 9 mph 1009.1mb 87f
10:50am 3ft 7s 6s 4 7 mph 1009.3mb -
10:40am 3ft  -  6s 7 9 mph 1009.3mb 86f
10:30am  -   -   -  4 7 mph 1009.3mb 86f
10:20am  -   -   -  4 7 mph 1009.3mb 86f
10:10am  -   -   -  4 7 mph 1009.3mb 86f
10:00am  -   -   -  4 7 mph 1009.3mb 86f
9:50am 3ft 6s 6s 4 7 mph 1009.3mb 86f
9:40am  -   -   -  4 7 mph 1009.2mb 86f
9:30am  -   -   -  4 7 mph 1009.2mb 86f
9:20am  -   -   -  7 9 mph 1009.1mb -
9:10am  -   -   -  7 9 mph 1009.1mb 86f
9:00am  -   -   -  7 9 mph 1009.1mb 86f
8:50am 3.5ft 7s 6s 7 9 mph 1009mb 86f
8:40am 3.5ft  -  6s 7 9 mph 1009.1mb 86f
8:30am  -   -   -  7 9 mph 1009mb 86f
8:20am  -   -   -  7 9 mph 1008.9mb 86f
8:10am  -   -   -  7 9 mph 1008.7mb 86f
8:00am  -   -   -  7 9 mph 1008.7mb 86f
7:50am 3.5ft 7s 6s 7 9 mph 1008.7mb 86f
7:40am  -   -   -  7 9 mph 1008.6mb 86f
7:30am  -   -   -  7 9 mph 1008.6mb 86f
7:20am  -   -   -  7 9 mph 1008.4mb 86f
7:10am  -   -   -  7 9 mph 1008.3mb 86f
7:00am  -   -   -  7 9 mph 1008.2mb 86f
6:50am 3ft 6s 6s 7 7 mph 1008.1mb 86f
6:40am 3ft  -  6s 7 7 mph 1008mb 86f
6:30am  -   -   -  4 7 mph 1007.9mb 86f
6:20am  -   -   -  4 7 mph 1007.9mb 86f
6:10am  -   -   -  4 7 mph 1007.8mb 86f
6:00am  -   -   -  4 7 mph 1007.7mb 86f
5:50am 2.5ft 6s 6s 2 4 mph 1007.6mb 86f
5:40am 2.5ft  -  6s 2 4 mph 1007.5mb 86f
5:30am  -   -   -  2 4 mph 1007.5mb 86f
5:20am  -   -   -  4 4 mph 1007.6mb 86f
5:10am  -   -   -  4 7 mph 1007.7mb 86f
5:00am  -   -   -  4 7 mph 1007.9mb 86f
4:50am 2.5ft 7s 6s 7 7 mph 1007.9mb 86f
4:40am  -   -   -  7 7 mph 1008mb 86f
4:30am  -   -   -  7 7 mph 1007.8mb 86f
4:20am  -   -   -  4 9 mph 1007.6mb 86f
4:10am  -   -   -  7 9 mph 1007.6mb 86f
4:00am  -   -   -  7 9 mph 1007.6mb 86f
3:50am 2.5ft 6s 6s 4 7 mph 1007.6mb 86f
3:40am  -   -   -  4 7 mph 1007.6mb 86f
3:30am  -   -   -  4 9 mph 1007.5mb 86f
3:20am  -   -   -  7 9 mph 1007.6mb 86f
3:10am  -   -   -  7 9 mph 1007.7mb 86f
3:00am  -   -   -  9 11 mph 1007.7mb 86f
2:50am 2.5ft 7s 6s 9 11 mph 1007.9mb 86f
2:40am 2.5ft  -  6s 9 11 mph 1007.8mb 86f
2:30am  -   -   -  7 9 mph 1007.8mb 86f
2:20am  -   -   -  7 9 mph 1007.8mb 86f
2:10am  -   -   -  4 9 mph 1007.9mb 86f
2:00am  -   -   -  4 7 mph 1007.9mb 86f
1:50am 2.5ft 7s 6s 4 7 mph 1007.9mb 86f
1:40am 2.5ft  -  6s 4 7 mph 1008.1mb 86f
1:30am  -   -   -  4 7 mph 1008.2mb 86f
1:20am  -   -   -  4 7 mph 1008.2mb -
1:10am  -   -   -  4 7 mph 1008.3mb 86f
1:00am  -   -   -  4 7 mph 1008.4mb 86f
12:50am 2.5ft 7s 6s 2 4 mph 1008.6mb 86f
12:40am  -   -   -  4 4 mph 1008.6mb 86f
12:30am  -   -   -  4 7 mph 1008.7mb 86f
12:20am  -   -   -  4 7 mph 1008.6mb 86f
12:10am  -   -   -  2 7 mph 1008.7mb 86f
12:00am  -   -   -  2 4 mph 1008.9mb 86f
Thu 09/21 11:50pm 3ft 7s 6s 2 4 mph 1009mb 86f
11:40pm  -   -   -  4 7 mph 1009mb 86f
11:30pm  -   -   -  4 7 mph 1009.2mb 86f
11:20pm  -   -   -  4 7 mph 1009.2mb 86f
11:10pm  -   -   -  4 9 mph 1009.2mb 86f
11:00pm  -   -   -  7 9 mph 1009.4mb 86f
10:50pm 3ft 7s 6s 4 7 mph 1009.5mb 86f
10:40pm  -   -   -  7 9 mph 1009.4mb 86f
10:30pm  -   -   -  7 9 mph 1009.4mb 86f
10:20pm  -   -   -  7 9 mph 1009.4mb 86f
10:10pm  -   -   -  7 9 mph 1009.4mb 86f
10:00pm  -   -   -  7 9 mph 1009.3mb 86f
9:50pm 3ft 7s 6s 7 9 mph 1009.3mb 86f
9:40pm 3ft  -  6s 4 7 mph 1009.2mb 86f
9:30pm  -   -   -  7 9 mph 1009.1mb 86f
9:20pm  -   -   -  7 9 mph 1009mb 86f
9:10pm  -   -   -  7 7 mph 1009mb -
9:00pm  -   -   -  4 7 mph 1008.9mb 86f
8:50pm 3ft 7s 6s 7 7 mph 1008.7mb 86f
8:40pm  -   -   -  4 9 mph 1008.6mb 86f
8:30pm  -   -   -  7 9 mph 1008.6mb 86f
8:20pm  -   -   -  7 9 mph 1008.5mb 86f
8:10pm  -   -   -  4 7 mph 1008.4mb 86f
8:00pm  -   -   -  4 7 mph 1008.2mb -
7:50pm 3ft 7s 6s 4 7 mph 1008mb 86f
7:40pm  -   -   -  4 7 mph 1007.8mb 86f
7:30pm  -   -   -  4 7 mph 1007.6mb 86f
7:20pm  -   -   -  4 7 mph 1007.6mb 86f
7:10pm  -   -   -  4 9 mph 1007.7mb -
7:00pm  -   -   -  4 7 mph 1007.6mb 86f
6:50pm 3.5ft 7s 6s 7 9 mph 1007.3mb 86f
6:40pm 3.5ft  -  6s 4 7 mph 1007.1mb 86f
6:30pm  -   -   -  4 7 mph 1007.1mb 86f
6:20pm  -   -   -  7 9 mph 1006.8mb 86f
6:10pm  -   -   -  7 9 mph 1006.8mb 86f
6:00pm  -   -   -  7 9 mph 1006.8mb 86f
5:50pm 3.5ft 7s 6s 4 7 mph 1006.8mb 86f
5:40pm  -   -   -  7 9 mph 1006.8mb 86f
5:30pm  -   -   -  4 7 mph 1006.7mb -
5:20pm  -   -   -  4 7 mph 1006.7mb -
5:10pm  -   -   -  4 7 mph 1006.7mb 87f
5:00pm  -   -   -  7 9 mph 1006.8mb 87f
4:50pm 3.5ft 6s 6s 7 9 mph 1006.8mb 87f
4:40pm  -   -   -  7 9 mph 1006.8mb 87f
4:30pm  -   -   -  4 7 mph 1007mb 87f
4:20pm  -   -   -  4 9 mph 1006.9mb 87f
4:10pm  -   -   -  4 7 mph 1007mb 87f
4:00pm  -   -   -  4 7 mph 1007.1mb 87f
3:50pm 3.5ft 6s 6s 4 9 mph 1007.1mb 87f
3:40pm  -   -   -  7 9 mph 1007.1mb 87f
3:30pm  -   -   -  7 9 mph 1007.2mb 87f
3:20pm  -   -   -  7 9 mph 1007.3mb 87f
3:10pm  -   -   -  7 9 mph 1007.4mb 87f
3:00pm  -   -   -  4 9 mph 1007.5mb 87f
2:50pm 4ft 7s 6s 4 7 mph 1007.5mb 87f
2:40pm 4ft  -  6s 4 9 mph 1007.5mb 87f
2:30pm  -   -   -  7 9 mph 1007.5mb 87f
2:20pm  -   -   -  4 9 mph 1007.6mb 87f
2:10pm  -   -   -  4 7 mph 1007.8mb 87f
2:00pm  -   -   -  4 7 mph 1007.9mb 87f
1:50pm 3.5ft 7s 6s 4 7 mph 1008.1mb 87f
1:40pm 3.5ft  -  6s 4 7 mph 1008.2mb 87f
1:30pm  -   -   -  4 7 mph 1008.2mb 87f
1:20pm  -   -   -  7 9 mph 1008.4mb 86f
1:10pm  -   -   -  7 9 mph 1008.5mb 87f
1:00pm  -   -   -  4 7 mph 1008.6mb 87f
12:50pm  -   -   -  4 9 mph 1008.8mb 86f
12:40pm  -   -   -  7 7 mph 1008.9mb 86f
12:30pm  -   -   -  7 7 mph 1009mb 86f
12:20pm  -   -   -  7 9 mph 1009mb 86f
12:10pm  -   -   -  7 11 mph 1009.2mb 86f
12:00pm  -   -   -  9 13 mph 1009.3mb 86f
11:50am 4ft 7s 6s 7 11 mph 1009.4mb 86f
11:40am  -   -   -  7 11 mph 1009.5mb 86f
11:30am  -   -   -  7 9 mph 1009.6mb 86f
11:20am  -   -   -  7 9 mph 1009.6mb 86f
11:10am  -   -   -  7 9 mph 1009.6mb 86f
11:00am  -   -   -  7 9 mph 1009.8mb 86f
10:50am 4ft 6s 6s 7 9 mph 1009.7mb -
10:40am 4ft  -  6s 4 7 mph 1009.8mb 86f
10:30am  -   -   -  4 7 mph 1009.8mb 86f
10:20am  -   -   -  4 7 mph 1009.8mb 86f
10:10am  -   -   -  4 7 mph 1009.8mb 86f
10:00am  -   -   -  4 7 mph 1009.8mb 86f
9:50am 4.5ft 6s 6s 4 7 mph 1009.8mb 86f
9:40am 4.5ft  -  6s 4 7 mph 1009.8mb 86f
9:30am  -   -   -  4 7 mph 1009.8mb 86f
9:20am  -   -   -  4 7 mph 1009.7mb 86f
9:10am  -   -   -  4 7 mph 1009.7mb 86f
9:00am  -   -   -  2 4 mph 1009.8mb 86f
8:50am 4ft 6s 6s 4 7 mph 1009.7mb 86f
8:40am 4ft  -  6s 4 7 mph 1009.6mb 86f
8:30am  -   -   -  4 7 mph 1009.7mb 86f
8:20am  -   -   -  4 7 mph 1009.6mb 86f
8:10am  -   -   -  7 9 mph 1009.6mb 86f
8:00am  -   -   -  7 9 mph 1009.6mb 86f
7:50am 4ft 6s 7s 7 9 mph 1009.5mb 86f
7:40am  -   -   -  7 9 mph 1009.5mb 86f
7:30am  -   -   -  7 9 mph 1009.5mb 86f
7:20am  -   -   -  4 7 mph 1009.4mb 86f
7:10am  -   -   -  4 7 mph 1009.3mb 86f
7:00am  -   -   -  4 9 mph 1009.1mb 86f
6:50am 4ft 11s 7s 4 9 mph 1009mb 86f
6:40am  -   -   -  4 7 mph 1008.9mb 86f
6:30am  -   -   -  4 7 mph 1008.8mb 86f
6:20am  -   -   -  4 7 mph 1008.7mb 86f
6:10am  -   -   -  4 7 mph 1008.7mb 85f
6:00am  -   -   -  4 7 mph 1008.7mb 85f
5:50am 4ft 11s 7s 7 9 mph 1008.7mb 85f
5:40am 4ft  -  7s 7 9 mph 1008.5mb 85f
5:30am  -   -   -  7 9 mph 1008.5mb 85f
5:20am  -   -   -  7 11 mph 1008.5mb 85f
5:10am  -   -   -  7 11 mph 1008.5mb 85f
5:00am  -   -   -  7 9 mph 1008.4mb 85f
4:50am 4ft 10s 8s 7 9 mph 1008.2mb 85f
4:40am 4ft  -  8s 7 9 mph 1008.2mb 85f
4:30am  -   -   -  7 9 mph 1008.1mb 85f
4:20am  -   -   -  7 9 mph 1008mb 85f
4:10am  -   -   -  7 11 mph 1008mb 85f
4:00am  -   -   -  7 9 mph 1008mb 85f
3:50am 4.5ft 11s 8s 7 11 mph 1008mb 85f
3:40am 4.5ft  -  8s 7 11 mph 1008mb 85f
3:30am  -   -   -  7 11 mph 1008.1mb -
3:20am  -   -   -  9 11 mph 1008.2mb 85f
3:10am  -   -   -  9 11 mph 1008.2mb 85f
3:00am  -   -   -  9 11 mph 1008.3mb 85f
2:50am 4.5ft 11s 8s 9 11 mph 1008.2mb 85f
2:40am  -   -   -  7 11 mph 1008.3mb 85f
2:30am  -   -   -  7 11 mph 1008.4mb 86f
2:20am  -   -   -  7 9 mph 1008.5mb 86f
2:10am  -   -   -  7 9 mph 1008.6mb 86f
2:00am  -   -   -  7 9 mph 1008.7mb 86f
1:50am 4.5ft 12s 8s 7 9 mph 1008.7mb 86f
1:40am 4.5ft  -  8s 9 11 mph 1008.7mb 86f
1:30am  -   -   -  7 11 mph 1008.7mb 86f
1:20am  -   -   -  7 9 mph 1008.8mb 86f
1:10am  -   -   -  7 9 mph 1009mb 86f
1:00am  -   -   -  7 9 mph 1009.2mb 86f
12:50am 5.5ft 12s 9s 7 9 mph 1009.2mb 86f
12:40am  -   -   -  7 9 mph 1009.3mb 86f
12:30am  -   -   -  7 9 mph 1009.3mb 86f
12:20am  -   -   -  7 9 mph 1009.6mb 86f
12:10am  -   -   -  7 9 mph 1009.9mb 86f
12:00am  -   -   -  7 9 mph 1010mb 86f
Wed 09/20 11:50pm 5.5ft 12s 9s 4 9 mph 1010.1mb 86f
11:40pm  -   -   -  4 7 mph 1010.1mb 86f
11:30pm  -   -   -  4 7 mph 1010.3mb 86f
11:20pm  -   -   -  4 7 mph 1010.4mb 86f
11:10pm  -   -   -  2 4 mph 1010.5mb 86f
11:00pm  -   -   -  2 7 mph 1010.6mb 86f
10:50pm 5.5ft 12s 9s 4 7 mph 1010.6mb 86f
10:40pm  -   -   -  2 4 mph 1010.7mb 86f
10:30pm  -   -   -  2 7 mph 1010.8mb 85f
10:20pm  -   -   -  4 7 mph 1010.7mb 86f
10:10pm  -   -   -  4 7 mph 1010.7mb 86f
10:00pm  -   -   -  4 4 mph 1010.7mb 86f
9:50pm 5ft 11s 9s 4 4 mph 1010.7mb 86f
9:40pm  -   -   -  4 7 mph 1010.7mb 86f
9:30pm  -   -   -  4 7 mph 1010.8mb 86f
9:20pm  -   -   -  4 7 mph 1010.8mb 86f
9:10pm  -   -   -  7 7 mph 1010.7mb 86f
9:00pm  -   -   -  4 7 mph 1010.7mb -
8:50pm 5.5ft 12s 9s 4 7 mph 1010.6mb 86f
8:40pm 5.5ft  -  9s 4 7 mph 1010.5mb 86f
8:30pm  -   -   -  2 4 mph 1010.4mb 86f
8:20pm  -   -   -  4 7 mph 1010.3mb 86f
8:10pm  -   -   -  4 7 mph 1010.2mb 86f
8:00pm  -   -   -  4 7 mph 1010.1mb -
7:50pm 5ft 13s 9s 4 7 mph 1010.1mb 86f
7:40pm  -   -   -  4 7 mph 1010mb 86f
7:30pm  -   -   -  7 9 mph 1009.9mb 86f
7:20pm  -   -   -  7 7 mph 1009.8mb 86f
7:10pm  -   -   -  4 7 mph 1009.7mb 86f
7:00pm  -   -   -  7 7 mph 1009.6mb 86f
6:50pm 5ft 13s 9s 4 7 mph 1009.5mb -
6:40pm  -   -   -  7 9 mph 1009.6mb 86f
6:30pm  -   -   -  7 9 mph 1009.5mb 86f
6:20pm  -   -   -  7 9 mph 1009.5mb 86f
6:10pm  -   -   -  7 9 mph 1009.4mb 86f
6:00pm  -   -   -  7 9 mph 1009.3mb 86f
5:50pm 4.5ft 12s 9s 7 7 mph 1009.3mb 86f
5:40pm  -   -   -  4 9 mph 1009.3mb 86f
5:30pm  -   -   -  4 7 mph 1009.3mb 86f
5:20pm  -   -   -  7 7 mph 1009.4mb 86f
5:10pm  -   -   -  4 7 mph 1009.4mb -
5:00pm  -   -   -  4 7 mph 1009.4mb 86f
4:50pm 4.5ft 14s 9s 7 9 mph 1009.4mb 86f
4:40pm 4.5ft  -  9s 7 9 mph 1009.4mb 86f
4:30pm  -   -   -  7 9 mph 1009.4mb 86f
4:20pm  -   -   -  7 7 mph 1009.5mb 86f
4:10pm  -   -   -  7 7 mph 1009.6mb 86f
4:00pm  -   -   -  7 9 mph 1009.6mb 86f
3:50pm 4ft 13s 8s 7 9 mph 1009.6mb 86f
3:40pm  -   -   -  7 7 mph 1009.7mb 86f
3:30pm  -   -   -  7 9 mph 1009.8mb 86f
3:20pm  -   -   -  7 9 mph 1009.8mb 86f
3:10pm  -   -   -  4 7 mph 1009.8mb 87f
3:00pm  -   -   -  7 9 mph 1009.9mb 86f
2:50pm 3.5ft 15s 7s 7 9 mph 1010.1mb 86f
2:40pm 3.5ft  -  7s 4 9 mph 1010.1mb 86f
2:30pm  -   -   -  7 9 mph 1010.3mb 87f
2:20pm  -   -   -  7 7 mph 1010.3mb 86f
2:10pm  -   -   -  4 7 mph 1010.4mb 86f
2:00pm  -   -   -  4 7 mph 1010.6mb 86f
1:50pm 3ft 14s 6s 4 7 mph 1010.7mb 86f
1:40pm  -   -   -  7 7 mph 1010.8mb 87f
1:30pm  -   -   -  4 9 mph 1010.9mb 86f
1:20pm  -   -   -  7 7 mph 1011.1mb 86f
1:10pm  -   -   -  7 9 mph 1011.3mb 86f
1:00pm  -   -   -  4 7 mph 1011.5mb 86f
12:50pm 2.5ft  -  5s 4 7 mph 1011.6mb 86f
12:40pm 2.5ft  -  5s 7 7 mph 1011.7mb 86f
12:30pm  -   -   -  7 9 mph 1011.8mb 86f
12:20pm  -   -   -  7 9 mph 1012mb 86f
12:10pm  -   -   -  7 9 mph 1012mb 86f
12:00pm  -   -   -  7 9 mph 1012.2mb 86f
11:50am 2.5ft 11s 5s 9 9 mph 1012.4mb 86f
11:40am  -   -   -  7 9 mph 1012.5mb 86f
11:30am  -   -   -  7 9 mph 1012.5mb 86f
11:20am  -   -   -  9 11 mph 1012.5mb 86f
11:10am  -   -   -  7 9 mph 1012.5mb 86f
11:00am  -   -   -  7 11 mph 1012.5mb -
10:50am 2.5ft 11s 5s 7 9 mph 1012.6mb 85f
10:40am  -   -   -  9 9 mph 1012.6mb 85f
10:30am  -   -   -  9 11 mph 1012.5mb 85f
10:20am  -   -   -  9 11 mph 1012.5mb 85f
10:10am  -   -   -  9 11 mph 1012.3mb 85f
10:00am  -   -   -  9 11 mph 1012.3mb 85f
9:50am 2.5ft 10s 5s 9 11 mph 1012.3mb 85f
9:40am 2.5ft  -  5s 9 11 mph 1012.3mb 85f
9:30am  -   -   -  9 11 mph 1012.3mb -
9:20am  -   -   -  9 13 mph 1012mb 85f
9:10am  -   -   -  11 13 mph 1012mb 85f
9:00am  -   -   -  9 11 mph 1011.8mb 85f
8:50am 2.5ft 11s 5s 9 11 mph 1011.8mb 85f
8:40am  -   -   -  9 11 mph 1011.9mb 85f
8:30am  -   -   -  9 11 mph 1011.8mb -
8:20am  -   -   -  9 13 mph 1011.8mb 85f
8:10am  -   -   -  11 13 mph 1011.8mb 85f
8:00am  -   -   -  11 13 mph 1011.7mb -
7:50am 2.5ft 11s 5s 11 13 mph 1011.7mb 85f
7:40am  -   -   -  11 13 mph 1011.7mb 85f
7:30am  -   -   -  11 13 mph 1011.7mb 85f
7:20am  -   -   -  11 13 mph 1011.6mb 85f
7:10am  -   -   -  11 13 mph 1011.5mb 85f
7:00am  -   -   -  13 16 mph 1011.4mb 85f
6:50am 2.5ft 11s 4s 11 16 mph 1011.2mb -
6:40am 2.5ft  -  4s 13 16 mph 1011.2mb 85f
6:30am  -   -   -  13 16 mph 1011mb 85f
6:20am  -   -   -  13 16 mph 1011mb 85f
6:10am  -   -   -  13 16 mph 1010.9mb 85f
6:00am  -   -   -  13 16 mph 1011.2mb 85f
5:50am 2.5ft 11s 5s 13 16 mph 1011.2mb 85f
5:40am  -   -   -  11 16 mph 1011.2mb 85f
5:30am  -   -   -  11 16 mph 1011.2mb 84f
5:20am  -   -   -  11 16 mph 1011.2mb 84f
5:10am  -   -   -  11 16 mph 1011.1mb 84f
5:00am  -   -   -  11 13 mph 1011mb 84f
4:50am 2.5ft 11s 5s 11 13 mph 1010.9mb 84f
4:40am 2.5ft  -  5s 13 16 mph 1010.9mb 84f
4:30am  -   -   -  11 13 mph 1010.9mb 84f
4:20am  -   -   -  11 16 mph 1011mb 84f
4:10am  -   -   -  11 13 mph 1010.9mb 84f
4:00am  -   -   -  11 13 mph 1010.9mb 84f
3:50am 2.5ft 11s 5s 11 13 mph 1010.9mb 84f
3:40am  -   -   -  7 13 mph 1010.9mb 84f
3:30am  -   -   -  11 22 mph 1011mb -
3:20am  -   -   -  9 11 mph 1011mb 84f
3:10am  -   -   -  9 11 mph 1010.9mb 84f
3:00am  -   -   -  11 13 mph 1011mb 84f
2:50am 2.5ft 11s 4s 11 13 mph 1010.9mb 84f
2:40am  -   -   -  9 11 mph 1010.9mb 84f
2:30am  -   -   -  9 11 mph 1011mb 84f
2:20am  -   -   -  9 11 mph 1011mb 84f
2:10am  -   -   -  9 11 mph 1011mb 84f
2:00am  -   -   -  9 11 mph 1011.1mb 84f
1:50am 2ft 12s 4s 11 13 mph 1011.2mb 84f
1:40am  -   -   -  11 13 mph 1011.3mb 84f
1:30am  -   -   -  11 13 mph 1011.3mb -
1:20am  -   -   -  11 13 mph 1011.5mb 84f
1:10am  -   -   -  11 13 mph 1011.7mb 84f
1:00am  -   -   -  11 13 mph 1011.7mb 85f
12:50am 2.5ft 11s 4s 11 13 mph 1011.9mb 84f
12:40am 2.5ft  -  4s 11 16 mph 1012mb 84f
12:30am  -   -   -  11 16 mph 1012.2mb 84f
12:20am  -   -   -  13 16 mph 1012.3mb 85f
12:10am  -   -   -  13 16 mph 1012.3mb 85f
12:00am  -   -   -  13 16 mph 1012.5mb 85f
Tue 09/19 11:50pm 2.5ft 12s 4s 13 16 mph 1012.6mb 85f
11:40pm 2.5ft  -  4s 11 16 mph 1012.6mb 85f
11:30pm  -   -   -  11 16 mph 1012.6mb 85f
11:20pm  -   -   -  11 13 mph 1012.8mb 85f
11:10pm  -   -   -  11 13 mph 1012.9mb 85f
11:00pm  -   -   -  11 13 mph 1012.8mb 85f
10:50pm 2.5ft 12s 5s 11 16 mph 1012.9mb 85f
10:40pm 2.5ft  -  5s 11 13 mph 1012.9mb 85f
10:30pm  -   -   -  11 13 mph 1013mb 85f
10:20pm  -   -   -  11 13 mph 1013mb 85f
10:10pm  -   -   -  11 13 mph 1012.9mb 85f
10:00pm  -   -   -  11 13 mph 1012.9mb 85f
9:50pm 2.5ft  -  5s 11 13 mph 1012.8mb -
9:40pm 2.5ft 11s 5s  -  mph - 85f
9:30pm  -   -   -  11 13 mph 1012.8mb 86f
9:20pm  -   -   -  11 13 mph 1012.8mb 86f
9:10pm  -   -   -  11 13 mph 1012.6mb 86f
9:00pm  -   -   -  11 13 mph 1012.5mb 86f
8:50pm 2.5ft 12s 4s 11 13 mph 1012.4mb 86f
8:40pm  -   -   -  11 13 mph 1012.3mb 86f
8:30pm  -   -   -  11 13 mph 1012.1mb 86f
8:20pm  -   -   -  13 16 mph 1011.8mb 86f
8:10pm  -   -   -  13 16 mph 1011.7mb 86f
8:00pm  -   -   -  13 16 mph 1011.5mb 86f
7:50pm 2.5ft 12s 5s 13 16 mph 1011.4mb 86f
7:40pm 2.5ft  -  5s 13 16 mph 1011.2mb 86f
7:30pm  -   -   -  13 16 mph 1011mb 86f